Tracking 18856 objects as of 11-Dec-2017
HD Live streaming from Space Station
objects crossing your sky now

COSMOS 2430

Track COSMOS 2430 now!
COSMOS 2430 is classified as:


NORAD ID: 32268
Int'l Code: 2007-049A
Perigee: 196.6 km
Apogee: 39,956.6 km
Inclination: 62.5 °
Period: 713.4 minutes
Semi major axis: 26447 km
RCS: 3.1623 m2 (large)
Launch date: October 23, 2007
Source: Commonwealth of Independent States (former USSR) (CIS)
Launch site: PLESETSK MISSILE AND SPACE COMPLEX (PKMTR)
aabbcc
Your satellite tracking list
Your tracking list is empty




NASA's NSSDC Master Catalog

Two Line Element Set (TLE):
1 32268U 07049A   17344.52036776 +.00004861 -11671-6 +21498-3 0  9995
2 32268 062.4972 283.8474 7516757 242.6539 025.0870 02.01847747074269
Source of the keplerian elements: AFSPC